GW5671 Weather Reports


time (UTC)temp
C
wind
direction
speed
KPH
gust
KPH
rain 1hr
cm
rain 24hr
cm
rain mn
cm
humidity
%
barometer
mb
20260509193005 13 351 17.7 27.4 0.00 0.28 0.03 79 1017.6
20260509191003 14 350 17.7 29.0 0.00 0.38 0.03 78 1017.6
20260509190503 14 350 17.7 27.4 0.00 0.41 0.03 78 1017.6
20260509190003 15 346 19.3 27.4 0.00 0.43 0.03 77 1017.5
20260509185503 15 343 19.3 27.4 0.00 0.46 0.03 76 1017.4
20260509185006 15 343 17.7 29.0 0.00 0.46 0.03 75 1017.2
20260509184503 15 350 17.7 29.0 0.00 0.46 0.03 74 1017.2
20260509184003 15 353 20.9 30.6 0.00 0.46 0.03 74 1017.2
20260509183505 15 352 22.5 30.6 0.00 0.46 0.03 73 1017.0
20260509183003 16 353 20.9 29.0 0.00 0.46 0.03 72 1017.0
20260509182503 16 353 20.9 29.0 0.00 0.46 0.03 71 1016.9
20260509181503 17 352 9.7 25.7 0.00 0.46 0.03 66 1016.9
20260509181005 17 10 3.2 6.4 0.00 0.46 0.03 59 1016.8
20260509180503 18 25 3.2 9.7 0.00 0.46 0.03 57 1016.8
20260509180004 18 39 3.2 9.7 0.00 0.46 0.03 56 1016.8
20260509175505 18 47 3.2 11.3 0.00 0.46 0.03 56 1016.8
20260509175003 18 39 4.8 11.3 0.00 0.46 0.03 51 1016.8
20260509174503 18 34 4.8 11.3 0.00 0.46 0.03 55 1016.8
20260509174005 18 30 3.2 9.7 0.00 0.46 0.03 54 1016.8
20260509173503 18 14 4.8 8.0 0.00 0.46 0.03 58 1016.7
20260509172503 18 16 6.4 12.9 0.00 0.46 0.03 53 1016.7
20260509171503 18 27 3.2 8.0 0.00 0.46 0.03 55 1016.7
20260509171007 18 44 4.8 12.9 0.00 0.46 0.03 52 1016.7
20260509170504 18 43 6.4 12.9 0.00 0.46 0.03 50 1016.8
20260509165503 18 45 3.2 12.9 0.00 0.46 0.03 51 1016.8
20260509165005 18 67 3.2 9.7 0.00 0.46 0.03 52 1016.8
20260509164503 18 67 3.2 9.7 0.00 0.46 0.03 52 1016.7
20260509164003 18 67 3.2 9.7 0.00 0.46 0.03 52 1016.7
20260509163503 18 67 3.2 9.7 0.00 0.46 0.03 52 1016.7
20260509163005 18 67 3.2 9.7 0.00 0.46 0.03 52 1016.7
20260509162505 18 67 3.2 9.7 0.00 0.46 0.03 52 1016.8
20260509160003 18 60 4.8 14.5 0.00 0.46 0.03 51 1016.9
20260509155503 18 47 4.8 14.5 0.00 0.46 0.03 50 1016.9
20260509155005 18 40 4.8 12.9 0.00 0.46 0.03 52 1017.0
20260509154505 18 42 3.2 12.9 0.00 0.46 0.03 50 1017.0
20260509154003 19 28 4.8 14.5 0.00 0.46 0.03 54 1016.9
20260509152503 19 64 4.8 14.5 0.00 0.46 0.03 51 1017.0
20260509152003 19 58 4.8 12.9 0.00 0.46 0.03 51 1017.1
20260509151506 19 67 4.8 14.5 0.00 0.46 0.03 50 1017.0
20260509151003 19 86 4.8 14.5 0.00 0.46 0.03 52 1017.1
20260509150003 19 77 4.8 14.5 0.00 0.46 0.03 52 1017.1
20260509144505 19 33 3.2 11.3 0.00 0.46 0.03 55 1017.2
20260509144003 19 64 4.8 11.3 0.00 0.46 0.03 54 1017.2
20260509143503 19 76 4.8 11.3 0.00 0.46 0.03 51 1017.2
20260509143003 19 48 4.8 11.3 0.00 0.46 0.03 51 1017.2
20260509141505 19 88 6.4 14.5 0.00 0.46 0.03 52 1017.3
20260509140505 19 71 4.8 14.5 0.00 0.46 0.03 56 1017.3
20260509135505 19 41 6.4 16.1 0.00 0.46 0.03 53 1017.3
20260509135003 19 13 8.0 16.1 0.00 0.46 0.03 53 1017.4
20260509133505 18 77 6.4 16.1 0.00 0.46 0.03 54 1017.4
20260509133004 19 54 6.4 16.1 0.00 0.46 0.03 57 1017.4
20260509132503 19 50 6.4 24.1 0.00 0.46 0.03 58 1017.6
20260509130505 18 59 6.4 16.1 0.00 0.46 0.03 60 1017.5
20260509125505 18 61 8.0 14.5 0.00 0.46 0.03 55 1017.6
20260509125003 18 69 6.4 14.5 0.00 0.46 0.03 57 1017.8
20260509124005 18 35 6.4 14.5 0.00 0.46 0.03 58 1017.8
20260509123003 18 18 4.8 14.5 0.00 0.46 0.03 62 1017.8
20260509122503 18 27 4.8 16.1 0.00 0.46 0.03 58 1017.9
20260509122005 18 31 6.4 16.1 0.00 0.46 0.03 60 1018.0
20260509121503 18 33 4.8 12.9 0.00 0.46 0.03 61 1017.9
20260509121003 17 57 4.8 12.9 0.00 0.46 0.03 62 1018.0
20260509120503 17 53 6.4 16.1 0.00 0.46 0.03 59 1018.0
20260509120005 18 44 6.4 16.1 0.00 0.46 0.03 60 1018.1
20260509115503 18 80 4.8 11.3 0.00 0.46 0.03 64 1018.1
20260509115003 17 82 6.4 14.5 0.00 0.46 0.03 61 1018.1
20260509114503 17 65 4.8 14.5 0.00 0.46 0.03 59 1018.2
20260509114005 17 58 4.8 14.5 0.00 0.46 0.03 62 1018.2
20260509113503 17 60 6.4 14.5 0.00 0.46 0.03 62 1018.2
20260509112505 17 70 6.4 14.5 0.00 0.46 0.03 61 1018.3
20260509110505 17 60 3.2 14.5 0.00 0.46 0.03 66 1018.4
20260509105003 16 85 4.8 12.9 0.00 0.46 0.03 75 1018.5
20260509104503 16 70 4.8 12.9 0.00 0.46 0.03 76 1018.5
20260509104005 16 27 4.8 11.3 0.00 0.46 0.03 80 1018.5
20260509103003 16 30 4.8 11.3 0.00 0.46 0.03 84 1018.7
20260509102503 15 49 4.8 11.3 0.00 0.46 0.03 86 1018.7
20260509102005 15 53 4.8 11.3 0.00 0.46 0.03 88 1018.6
20260509101003 14 97 3.2 9.7 0.00 0.46 0.03 93 1018.6
20260509100503 14 161 3.2 9.7 0.00 0.46 0.03 93 1018.6
20260509095505 13 211 3.2 9.7 0.00 0.46 0.03 94 1018.8
20260509095003 13 295 1.6 4.8 0.00 0.46 0.03 96 1018.8
20260509094503 13 306 1.6 4.8 0.00 0.46 0.03 97 1018.9
20260509094003 13 306 1.6 4.8 0.00 0.46 0.03 97 1018.9
20260509093003 12 306 1.6 4.8 0.00 0.46 0.03 97 1018.8
20260509092503 12 306 3.2 4.8 0.00 0.46 0.03 97 1018.9
20260509092003 12 305 3.2 4.8 0.00 0.46 0.03 96 1018.8
20260509091503 12 301 3.2 4.8 0.00 0.46 0.03 97 1018.9
20260509090505 11 263 3.2 4.8 0.00 0.46 0.03 97 1018.9
20260509090003 11 254 1.6 4.8 0.00 0.46 0.03 96 1018.9
20260509085503 11 254 1.6 4.8 0.00 0.46 0.03 97 1018.9
20260509085003 11 265 3.2 4.8 0.00 0.46 0.03 97 1018.9
20260509084503 11 315 3.2 4.8 0.00 0.46 0.03 97 1018.9
20260509084006 11 329 3.2 6.4 0.00 0.46 0.03 96 1018.9
20260509082005 10 325 3.2 6.4 0.03 0.46 0.03 96 1019.0
20260509081004 10 325 3.2 4.8 0.03 0.46 0.03 97 1019.1
20260509080503 10 321 3.2 6.4 0.03 0.46 0.03 96 1019.1
20260509075505 9 313 3.2 6.4 0.03 0.46 0.03 96 1019.2
20260509075003 9 313 3.2 6.4 0.03 0.46 0.03 96 1019.2
20260509074503 9 313 1.6 4.8 0.03 0.46 0.03 96 1019.2
20260509074005 9 313 1.6 4.8 0.03 0.46 0.03 96 1019.1
20260509073005 8 313 1.6 4.8 0.03 0.46 0.03 96 1019.1
20260509071505 8 0 0.0 0.0 0.00 0.43 0.00 97 1019.1
20260509070503 8 313 0.0 3.2 0.00 0.43 0.00 96 1019.0
20260509070003 8 301 1.6 4.8 0.00 0.43 0.00 96 1019.0
20260509065503 8 295 3.2 6.4 0.00 0.43 0.00 96 1019.0
20260509064003 8 272 3.2 4.8 0.00 0.43 0.00 96 1019.0
20260509062505 7 24 1.6 3.2 0.00 0.43 0.00 96 1018.9
20260509061005 7 24 0.0 1.6 0.00 0.43 0.00 96 1018.8
20260509060004 7 24 0.0 1.6 0.00 0.43 0.00 96 1018.8
20260509055005 7 24 0.0 3.2 0.00 0.43 0.00 95 1018.8
20260509054503 7 24 1.6 3.2 0.00 0.43 0.00 95 1018.7
20260509053503 7 24 3.2 4.8 0.00 0.43 0.00 95 1018.7
20260509053006 7 24 1.6 3.2 0.00 0.43 0.00 95 1018.7
20260509052503 7 24 1.6 3.2 0.00 0.43 0.00 95 1018.6
20260509052003 7 24 1.6 4.8 0.00 0.43 0.00 95 1018.6
20260509051503 6 24 1.6 4.8 0.00 0.43 0.00 95 1018.6
20260509050505 6 0 0.0 0.0 0.00 0.43 0.00 95 1018.5
20260509050005 6 0 0.0 0.0 0.00 0.43 0.00 95 1018.4
20260509045503 6 0 0.0 0.0 0.00 0.43 0.00 95 1018.4
20260509045005 6 0 0.0 0.0 0.00 0.43 0.00 95 1018.3
20260509043009 6 0 0.0 0.0 0.00 0.43 0.00 95 1018.2
20260509042503 6 0 0.0 0.0 0.00 0.43 0.00 95 1018.3
20260509042005 6 0 0.0 0.0 0.00 0.43 0.00 95 1018.3
20260509041510 6 0 0.0 0.0 0.00 0.43 0.00 94 1018.3
20260509041003 7 0 0.0 0.0 0.00 0.43 0.00 94 1018.3
20260509040508 7 0 0.0 0.0 0.00 0.43 0.00 94 1018.2
20260509035505 7 24 1.6 4.8 0.00 0.43 0.00 94 1018.1
20260509035003 7 24 0.0 3.2 0.00 0.43 0.00 94 1018.1
20260509034503 7 24 0.0 3.2 0.00 0.43 0.00 95 1018.0
20260509034005 7 0 0.0 0.0 0.00 0.43 0.00 95 1018.0
20260509033003 7 0 0.0 0.0 0.00 0.43 0.00 95 1018.2
20260509032508 7 0 0.0 0.0 0.00 0.43 0.00 95 1018.1
20260509032005 7 0 0.0 0.0 0.00 0.43 0.00 94 1018.1
20260509031503 7 0 0.0 0.0 0.00 0.43 0.00 94 1018.3
20260509031003 7 0 0.0 0.0 0.00 0.43 0.00 94 1018.2
20260509030505 7 0 0.0 0.0 0.00 0.43 0.00 94 1018.2
20260509030005 7 0 0.0 0.0 0.00 0.43 0.00 94 1018.2
20260509025503 8 0 0.0 0.0 0.00 0.43 0.00 94 1018.1
20260509025005 8 0 0.0 0.0 0.00 0.43 0.00 94 1018.2
20260509024503 8 0 0.0 0.0 0.00 0.43 0.00 94 1018.1
20260509023005 8 0 0.0 0.0 0.00 0.43 0.00 94 1018.0
20260509022505 8 0 0.0 0.0 0.00 0.43 0.00 94 1018.0
20260509022005 8 0 0.0 1.6 0.00 0.43 0.00 94 1018.1
20260509021505 8 0 0.0 1.6 0.00 0.43 0.00 94 1018.0
20260509020003 8 24 1.6 3.2 0.00 0.43 0.00 94 1018.0
20260509015503 8 24 1.6 3.2 0.00 0.43 0.00 94 1018.0
20260509015005 8 24 1.6 3.2 0.00 0.43 0.00 94 1017.9
20260509014503 8 24 1.6 3.2 0.00 0.43 0.00 94 1018.0
20260509014003 8 24 1.6 3.2 0.00 0.43 0.00 94 1018.1
20260509013503 8 24 0.0 1.6 0.00 0.43 0.00 94 1018.1
20260509012505 9 0 0.0 1.6 0.00 0.43 0.00 94 1018.2
20260509012003 9 0 0.0 1.6 0.00 0.43 0.00 94 1018.2
20260509011503 9 24 0.0 1.6 0.00 0.43 0.00 94 1018.2
20260509011003 9 24 0.0 1.6 0.00 0.43 0.00 94 1018.2
20260509010505 9 24 1.6 3.2 0.00 0.43 0.00 94 1018.1
20260509005005 9 24 3.2 6.4 0.00 0.43 0.00 94 1018.2
20260509003505 9 110 3.2 4.8 0.00 0.43 0.00 93 1018.1
20260509003003 10 110 1.6 3.2 0.00 0.43 0.00 93 1018.2
20260509002505 10 110 1.6 3.2 0.00 0.43 0.00 93 1018.1
20260509002005 10 110 0.0 1.6 0.00 0.43 0.00 93 1018.1
20260509001503 10 110 0.0 1.6 0.00 0.43 0.00 93 1018.2
20260509001003 10 110 0.0 1.6 0.00 0.43 0.00 93 1018.1
20260508234505 10 110 0.0 3.2 0.00 0.43 0.00 93 1018.1
20260508234005 10 110 1.6 3.2 0.00 0.43 0.00 93 1018.1
20260508233506 10 110 1.6 4.8 0.00 0.43 0.00 93 1018.2
20260508232005 10 110 3.2 6.4 0.00 0.43 0.00 93 1018.2
20260508231505 10 111 4.8 9.7 0.00 0.43 0.00 93 1018.2
20260508230004 10 83 3.2 6.4 0.00 0.43 0.00 93 1018.0
20260508225505 10 84 3.2 6.4 0.00 0.43 0.43 93 1018.0
20260508224503 10 83 3.2 4.8 0.03 0.43 0.43 93 1018.0
20260508223503 11 82 1.6 4.8 0.05 0.43 0.43 92 1018.0
20260508223003 11 83 1.6 6.4 0.10 0.43 0.43 92 1018.0
20260508222505 11 83 3.2 6.4 0.13 0.43 0.43 92 1018.0
20260508221505 11 69 3.2 6.4 0.20 0.43 0.43 92 1018.0
20260508221003 11 67 3.2 6.4 0.20 0.43 0.43 92 1018.0
20260508220503 11 67 3.2 6.4 0.20 0.43 0.43 92 1018.1
20260508215503 11 122 3.2 6.4 0.20 0.43 0.43 91 1018.1
20260508214005 11 0 0.0 6.4 0.15 0.38 0.38 92 1018.3
20260508213003 11 143 1.6 11.3 0.10 0.33 0.33 91 1018.3
20260508212503 11 143 3.2 11.3 0.08 0.33 0.33 91 1018.2
20260508212005 11 140 4.8 8.0 0.00 0.23 0.23 91 1018.0
20260508211505 11 116 4.8 8.0 0.00 0.23 0.23 90 1017.9
20260508210508 11 115 6.4 14.5 0.00 0.23 0.23 90 1017.7
20260508205505 11 106 4.8 9.7 0.00 0.23 0.23 90 1017.6
20260508204508 11 130 4.8 9.7 0.00 0.23 0.23 90 1017.5
20260508204005 11 111 3.2 9.7 0.03 0.23 0.23 90 1017.4
20260508203004 11 56 4.8 16.1 0.05 0.23 0.23 90 1017.3
20260508202503 11 57 4.8 17.7 0.08 0.23 0.23 89 1017.2
20260508202005 11 56 3.2 17.7 0.10 0.23 0.23 89 1017.2
20260508201503 11 63 3.2 12.9 0.13 0.23 0.23 89 1017.1
20260508201005 11 58 4.8 11.3 0.15 0.23 0.23 89 1017.1
20260508200005 12 68 3.2 14.5 0.23 0.23 0.23 89 1017.2
20260508195503 12 53 4.8 14.5 0.23 0.23 0.23 89 1017.2
20260508195003 12 44 4.8 14.5 0.23 0.23 0.23 88 1017.3
20260508194503 12 47 3.2 9.7 0.23 0.23 0.23 88 1017.2
20260508194005 12 48 3.2 9.7 0.23 0.23 0.23 88 1017.3